Location: *
(60.1759°S, 155.0663°W)
Time: 13:24:01
(UTC+00:00)

SL-16 R/B - Pass Details

Date: 17 September 2019
Orbit: 842 x 846 km, 71.0° (Epoch: 18 October)

Event Time Altitude Azimuth Distance (km) Brightness Sun altitude
Rises 13:14:33 0° 229° (SW) 3,443 5.3 -22.7°
Reaches altitude 10° 13:17:10 10° 221° (SW) 2,505 4.6 -22.4°
Maximum altitude 13:22:37 42° 151° (SSE) 1,219 3.5 -21.9°
Drops below altitude 10° 13:28:02 10° 80° (E) 2,491 5.2 -21.4°
Sets 13:30:38 0° 72° (ENE) 3,422 5.9 -21.1°
